Location: Bremen
(53.0793°N, 8.8017°E)
Time: 22:08:18
(UTC+01:00)

S-56A Canister/Altair - Pass Details

Date: 09 December 2021
Orbit: 634 x 2499 km, 38.9° (Epoch: 26 January)

Event Time Altitude Azimuth Distance (km) Brightness Sun altitude
Rises 20:50:54 0° 200° (SSW) 5,987 12.1 -40.9°
Reaches altitude 10° 20:56:50 10° 184° (S) 4,736 11.4 -41.7°
Enters shadow 20:57:05 10° 183° (S) 4,688 11.4 -41.8°
Maximum altitude 21:04:09 18° 149° (SSE) 3,720 - -42.8°
Drops below altitude 10° 21:10:16 10° 113° (ESE) 3,863 - -43.6°
Sets 21:14:20 0° 95° (E) 4,509 - -44.2°
